Погода в Дрокии

Молдова     48°02′03″N   27°48′57″E
темп.,
°C
ветер,
м/с
пор.,
м/с
влажн.,
%
обл.,
%
осадки,
мм/ч
давл.,
гПа
погр.,
м
1 марта, пн
пн123:00+2зсз61196100 0.6 1025667
02:00+2сз61197100 2.9 1025554
05:00+2ссз4995100 0.8 1026483
08:00+2с6997100 1.5 1028580
11:00+4ссв6877100 0.1 1030930
14:00+4с5783100 0.4 1031730
17:00+4с357296 0.1 1032716
20:00+3ссз248198 0.1 1034149
2 марта, вт
вт223:00+3сз2483100 0.1 1034108
02:00+2ссз2482100 0.1 1035135
05:00+1з358686 0.0 1033132
08:00+1зсз498743 0.0 1032330
11:00+5зсз697271 0.0 1030488
14:00+9зсз7106035 0.0 1028695
17:00+9зсз612610 0.0 1025773
20:00+6сз716704 0.0 1026667
3 марта, ср
ср323:00+5сз716759 0.0 1027675
02:00+4сз614824 0.0 1029505
05:00+2сз411910 0.0 1029319
08:00+2ссз49920 0.0 1030364
11:00+6ссз46600 0.0 1031769
14:00+8ссз45430 0.0 10301062
17:00+7сз24488 0.0 1028350
20:00+4з116248 0.0 102922
4 марта, чт
чт423:00+3зюз228133 0.0 102822
02:00+2ю338716 0.0 102640
05:00+1ю33880 0.0 102359
08:00+2ю38850 0.0 1021243
11:00+7ююз45680 0.0 1018338
14:00+11з35484 0.0 1015619
17:00+10сз235136 0.0 101381
20:00+7зюз016020 0.0 101422
5 марта, пт
пт523:00+6юз22610 0.0 101422
02:00+5юз23672 0.0 101322
05:00+4юз23716 0.0 101222
08:00+4ююз337119 0.0 101173
11:00+10ююз455358 0.0 1010275
14:00+13юз484132 0.0 10081153
17:00+12з234845 0.0 100860
20:00+8ссз5107269 0.0 1009351